Clearfield, PA

8:22 PM EST on November 23, 2017 (GMT -0500)
Clearfield-Lawrence

Weather History for KFIG - August, 2013

Change the Weather History Date:

Monday, August 19, 2013

  Actual Average (KDUJ) Record (KDUJ)
Temperature  
Mean Temperature 66 °F -  
Max Temperature 77 °F 77 °F 87 °F (1978)
Min Temperature 57 °F 58 °F 43 °F (1977)
Cooling Degree Days 1    
Growing Degree Days 16 (Base 50)    
Moisture  
Dew Point 61 °F    
Average Humidity 94    
Maximum Humidity 100    
Minimum Humidity 66    
Precipitation  
Precipitation 0.32 in - - ()
Sea Level Pressure  
Sea Level Pressure 30.15 in    
Wind  
Wind Speed 1 mph (North)    
Max Wind Speed 6 mph    
Max Gust Speed -    
Visibility 5 miles    
Events Fog , Rain    
Averages and records for this station are not official NWS values.
T = Trace of Precipitation, MM = Missing Value Source: NWS Daily Summary

Daily Weather History Graph

Daily Weather History Graph

Search for Another Location

Airport or City:

Trip Planner

Search our weather history database for the weather conditions in past years. The results will help you decide how hot, cold, wet, or windy it might be!

Date:

Astronomy

Aug. 19, 2013 Rise Set
Actual Time 6:27 AM EDT 8:06 PM EDT
Civil Twilight 5:58 AM EDT 8:35 PM EDT
Nautical Twilight 5:22 AM EDT 9:10 PM EDT
Astronomical Twilight 4:45 AM EDT 9:47 PM EDT
Moon 6:55 PM EDT (8/19) 4:44 AM EDT (8/19)
Length of Visible Light 14h 36m
Length of Day
13h 38m
Waxing Gibbous, 97% of the Moon is Illuminated
Aug 19
Waxing Gibbous
Aug 20
Full
Aug 28
Last Quarter
Sep 5
New
Sep 12
First Quarter

Hourly Weather History & Observations

Time (EDT) Temp. Dew Point Humidity Pressure Visibility Wind Dir Wind Speed Gust Speed Precip Events Conditions
12:54 AM 60.1 °F 59.0 °F 96% 30.19 in 10.0 mi Calm Calm - N/A   Overcast
1:54 AM 59.0 °F 57.9 °F 96% 30.17 in 10.0 mi Calm Calm - N/A   Partly Cloudy
2:54 AM 59.0 °F 57.9 °F 96% 30.16 in 10.0 mi Calm Calm - N/A   Overcast
3:54 AM 59.0 °F 59.0 °F 100% 30.15 in 10.0 mi Calm Calm - N/A   Overcast
4:54 AM 57.9 °F 57.9 °F 100% 30.15 in 9.0 mi Calm Calm - N/A   Overcast
5:54 AM 57.9 °F 57.9 °F 100% 30.16 in 5.0 mi North 5.8 mph - 0.01 in Rain Heavy Rain
6:54 AM 57.9 °F 57.9 °F 100% 30.17 in 3.0 mi Calm Calm - 0.09 in Rain Rain
7:02 AM 59.0 °F 59.0 °F 100% 30.18 in 3.0 mi Calm Calm - 0.01 in Rain Light Rain
7:08 AM 59.0 °F 59.0 °F 100% 30.18 in 2.5 mi Calm Calm - 0.01 in Rain Light Rain
7:12 AM 59.0 °F 59.0 °F 100% 30.18 in 3.0 mi Calm Calm - 0.02 in Rain Light Rain
7:22 AM 59.0 °F 59.0 °F 100% 30.18 in 3.0 mi Calm Calm - 0.03 in Rain Rain
7:38 AM 59.0 °F 59.0 °F 100% 30.18 in 1.8 mi South 4.6 mph - 0.05 in Rain Rain
7:43 AM 59.0 °F 59.0 °F 100% 30.18 in 0.5 mi Calm Calm - 0.07 in Fog , Rain Rain
7:46 AM 59.0 °F 59.0 °F 100% 30.18 in 0.2 mi Calm Calm - 0.08 in Fog , Rain Rain
7:54 AM 59.0 °F 59.0 °F 100% 30.17 in 0.5 mi Calm Calm - 0.09 in Fog , Rain Light Rain
8:00 AM 59.0 °F 59.0 °F 100% 30.19 in 2.0 mi SSW 3.5 mph - 0.00 in Rain Light Rain
8:10 AM 59.0 °F 59.0 °F 100% 30.18 in 1.8 mi Calm Calm - 0.01 in Rain Light Rain
8:17 AM 59.0 °F 59.0 °F 100% 30.18 in 2.5 mi Calm Calm - 0.01 in Rain Light Rain
8:24 AM 59.0 °F 59.0 °F 100% 30.18 in 0.8 mi North 3.5 mph - 0.02 in Rain Rain
8:28 AM 59.0 °F 59.0 °F 100% 30.18 in 0.2 mi North 3.5 mph - 0.03 in Fog , Rain Rain
8:36 AM 59.0 °F 59.0 °F 100% 30.18 in 0.2 mi NNE 3.5 mph - 0.03 in Fog , Rain Light Rain
8:47 AM 59.0 °F 59.0 °F 100% 30.18 in 0.2 mi Calm Calm - 0.03 in Fog , Rain Light Rain
8:54 AM 59.0 °F 59.0 °F 100% 30.17 in 1.2 mi NE 3.5 mph - 0.03 in Rain Light Rain
8:58 AM 59.0 °F 59.0 °F 100% 30.17 in 3.0 mi ENE 3.5 mph - 0.00 in Rain Light Rain
9:03 AM 60.8 °F 60.8 °F 100% 30.17 in 3.0 mi Calm Calm - 0.01 in Rain Light Rain
9:07 AM 60.8 °F 60.8 °F 100% 30.17 in 1.8 mi Calm Calm - 0.03 in Rain Heavy Rain
9:17 AM 60.8 °F 60.8 °F 100% 30.17 in 0.8 mi North 5.8 mph - 0.06 in Rain Rain
9:27 AM 59.0 °F 59.0 °F 100% 30.17 in 0.8 mi Calm Calm - 0.08 in Rain Rain
9:31 AM 59.0 °F 59.0 °F 100% 30.16 in 2.0 mi Calm Calm - 0.09 in Rain Rain
9:35 AM 60.8 °F 60.8 °F 100% 30.16 in 3.0 mi ENE 5.8 mph - 0.09 in Rain Rain
9:54 AM 60.1 °F 60.1 °F 100% 30.16 in 6.0 mi Calm Calm - 0.10 in Rain Light Rain
10:11 AM 60.8 °F 60.8 °F 100% 30.16 in 5.0 mi ESE 4.6 mph - 0.00 in   Overcast
10:54 AM 63.0 °F 62.1 °F 97% 30.16 in 7.0 mi Calm Calm - 0.00 in   Mostly Cloudy
11:34 AM 64.4 °F 62.6 °F 94% 30.17 in 4.0 mi North 3.5 mph - N/A   Overcast
11:46 AM 64.4 °F 62.6 °F 94% 30.16 in 4.0 mi Calm Calm - N/A   Overcast
11:54 AM 64.9 °F 63.0 °F 93% 30.15 in 5.0 mi Calm Calm - N/A   Overcast
12:02 PM 66.2 °F 62.6 °F 88% 30.16 in 7.0 mi Calm Calm - N/A   Overcast
12:54 PM 70.0 °F 61.0 °F 73% 30.13 in 10.0 mi Calm Calm - N/A   Partly Cloudy
1:54 PM 73.0 °F 63.0 °F 71% 30.12 in 10.0 mi Calm Calm - N/A   Scattered Clouds
2:54 PM 73.0 °F 63.0 °F 71% 30.11 in 10.0 mi NNW 4.6 mph - N/A   Overcast
3:54 PM 73.0 °F 64.0 °F 73% 30.11 in 10.0 mi WNW 4.6 mph - N/A   Overcast
4:54 PM 73.9 °F 64.0 °F 71% 30.10 in 10.0 mi WSW 3.5 mph - N/A   Mostly Cloudy
5:54 PM 75.9 °F 64.0 °F 67% 30.08 in 10.0 mi Calm Calm - N/A   Partly Cloudy
6:54 PM 75.0 °F 63.0 °F 66% 30.08 in 10.0 mi Calm Calm - N/A   Partly Cloudy
7:54 PM 72.0 °F 64.0 °F 76% 30.09 in 10.0 mi Calm Calm - N/A   Mostly Cloudy
8:54 PM 70.0 °F 64.9 °F 84% 30.09 in 10.0 mi SW 3.5 mph - N/A   Overcast
9:54 PM 68.0 °F 66.0 °F 93% 30.12 in 10.0 mi Calm Calm - N/A   Overcast
10:54 PM 66.0 °F 66.0 °F 100% 30.12 in 10.0 mi South 4.6 mph - N/A   Overcast
11:54 PM 64.9 °F 64.0 °F 97% 30.12 in 10.0 mi SW 3.5 mph - N/A   Mostly Cloudy